ZHUHAI-1 02 (CAS 4B)

Last updated on Mon Sep 14 2020 05:43:41 GMT+0000 (Coordinated Universal Time)

1 42759U 17034B 20257.93362610 .00000098 00000-0 19384-4 0 9994 2 42759 43.0190 260.9009 0011017 234.9770 204.4785 15.09880104179344
UTC large
Height (km)
Speed (km/s)
/
Latitude / Longitude
Inclination (degrees)
Orbital Period (minutes)
Azimuth
Elevation
Range (km)
Doppler Factor

Next 0 passes for location: London (51.5072 / 0.1276)

Sorry there are no passes over London.
ZHUHAI-1 02 (CAS 4B)